Content
SEND FEEDBACK

Daily
Averages
Monthly
Summary
United States of America

PATRICK CREEK, CALIFORNIA


Home > North America > United States > California
Elevation: 1250 feet     Latitude: 41 54N     Longitude: 123 46W

WEATHER
 
SELECT A DAY
Number of Records: 269,997;   Date Range: 1/1/95 - 9/18/14
 
SHARE

PRINT THIS DATA

[ ← Previous Day ]
WEATHER ALMANAC - JANUARY 31, 2013
[ Next Day → ]
[ °C ]   °F
Weather ElementAverageHighLow
Temperature45.4 °F52 °F (10:56 am)37.9 °F (6:56 am)
Dewpoint38.9 °F43 °F (1:56 pm)35.1 °F (8:56 pm)
Humidity78.9 %93 % (2:56 am)63 % (10:56 am)
Barometer30.32 in30.37 in (1:56 am)30.25 in (6:56 pm)
Wind Speed4.7 mph8.1 mph (2:56 pm)
Weather ElementAverage
Visibility9.5 mi
Wind DirectionSSE (155.9 °)

Weather ElementTotal
Precipitation---
Heating Degree Days20.1 (Base 65)
Averaged from 22 records on January 31, 2013
WEATHER CONDITIONS BREAKOUT
WIND DIRECTION BREAKOUT
WEATHER BY HOUR - JANUARY 31, 2013
[ °C ]   °F
Local TimeTemperatureDewpointHumidityBarometerVisibilityWind DirectionWind SpeedGust SpeedPrecipitationEventsConditions
1:56 AM43.0 °F39.0 °F86 %30.37 in10.0 miEast (90°)3.5 mphClear
2:56 AM41.0 °F39.0 °F93 %30.37 in10.0 miNE (50°)3.5 mphClear
3:56 AM41.0 °F39.0 °F93 %30.37 in5.0 miNorth (350°)3.5 mphClear
4:56 AM39.9 °F37.9 °F93 %30.36 in10.0 miNorth (10°)4.6 mphClear
5:56 AM39.9 °F37.9 °F93 %30.36 in7.0 miNNW (340°)4.6 mphClear
6:56 AM37.9 °F36.0 °F93 %30.35 in10.0 miENE (70°)3.5 mphClear
7:56 AM39.9 °F37.0 °F89 %30.36 in10.0 miENE (70°)4.6 mphClear
8:56 AM44.1 °F42.1 °F93 %30.37 in10.0 miCalmClear
9:56 AM48.9 °F39.9 °F71 %30.36 in10.0 miCalmClear
10:56 AM52.0 °F39.9 °F63 %30.36 in10.0 miSouth (170°)5.8 mphClear
11:56 AM50.0 °F41.0 °F71 %30.34 in10.0 miWNW (290°)5.8 mphClear
12:56 PM50.0 °F42.1 °F74 %30.32 in10.0 miWNW (290°)6.9 mphClear
1:56 PM50.0 °F43.0 °F77 %30.31 in10.0 miNNW (330°)6.9 mphClear
2:56 PM51.1 °F42.1 °F71 %30.30 in10.0 miNNW (340°)8.1 mphClear
3:56 PM50.0 °F43.0 °F77 %30.29 in10.0 miNNW (330°)5.8 mphClear
4:56 PM48.0 °F43.0 °F83 %30.28 in6.0 miNNW (330°)3.5 mphHaze
6:56 PM48.0 °F37.9 °F68 %30.25 in10.0 miENE (60°)6.9 mphClear
7:56 PM45.0 °F36.0 °F71 %30.25 in10.0 miENE (70°)4.6 mphClear
8:56 PM44.1 °F35.1 °F71 %30.25 in10.0 miENE (60°)5.8 mphClear
9:56 PM46.9 °F35.1 °F63 %30.25 in10.0 miNE (50°)5.8 mphClear
10:56 PM44.1 °F35.1 °F71 %30.25 in10.0 miNE (50°)5.8 mphClear
11:56 PM44.1 °F35.1 °F71 %30.25 in10.0 miEast (80°)4.6 mphClear
Hourly data recorded from KCEC, located miles away from Patrick Creek, California







STORIES FROM OUR PARTNERS